Flag for Germany Past Weather in Weiden in der Oberpfalz, Bavaria, Germany — Yesterday and Last 2 Weeks

Now
72 °F

Clear.


Feels Like: 75 °F
Forecast: 56 / 76 °F
Wind: No wind

Location: Grafenwoehr

Current Time: Aug 28, 2016 at 11:05:21 PM

Latest Report: Aug 28, 2016 at 9:58 PM


Visibility: N/A

Pressure: 29.94 "Hg

Humidity: 65%

Dew Point: 59 °F

Location of Weiden in der OberpfalzLocation

Past Weather in Weiden in der Oberpfalz — Graph

°F

Weiden in der Oberpfalz Temperature Yesterday

Maximum temperature yesterday: 90 °F (at 3:58 PM)
Minimum temperature yesterday: 50 °F (at 5:58 AM)
Average temperature yesterday: 69 °F

High & Low Weather Summary for the Past Weeks

 TemperatureHumidityPressure
High90 °F (Aug 26, 4:58 PM)100% (Aug 14, 1:58 AM)30.40 "Hg (Aug 14, 1:58 AM)
Low41 °F (Aug 18, 5:58 AM)22% (Aug 26, 4:58 PM)29.77 "Hg (Aug 18, 4:58 PM)
Average64 °F69%30.08 "Hg
* Reported Aug 13 9:58 PM — Aug 28 9:58 PM, Weiden in der Oberpfalz, Weather by CustomWeather, © 2016

Note: Actual official high and low records may vary slightly from our data, if they occured in-between our weather recording intervals... More about our weather records

Advertising

Weiden in der Oberpfalz Weather History for the Previous 24 Hours

Scroll right to see more
 ConditionsComfort  
Time TempWeatherWind HumidityBarometerVisibility
9:58 PM
Sun, Aug 28
72 °FClear.No wind65%29.94 "HgN/A
8:58 PM77 °FSunny.No wind54%29.93 "HgN/A
7:58 PM82 °FSunny.3 mph40%29.92 "HgN/A
6:58 PM88 °FSunny.6 mph31%29.91 "HgN/A
5:58 PM90 °FSunny.9 mph29%29.91 "HgN/A
4:58 PM90 °FSunny.7 mph29%29.93 "HgN/A
3:58 PM90 °FSunny.10 mph29%29.94 "HgN/A
2:58 PM90 °FScattered clouds.12 mph29%29.96 "HgN/A
1:58 PM88 °FSunny.8 mph38%29.97 "HgN/A
12:58 PM82 °FPartly sunny.5 mph48%29.99 "HgN/A
11:58 AM82 °FSunny.6 mph48%29.99 "HgN/A
10:58 AM79 °FSunny.7 mph54%30.02 "HgN/A
9:58 AM72 °FPassing clouds.1 mph65%30.03 "HgN/A
8:58 AM64 °FSunny.No wind78%30.03 "HgN/A
7:58 AM55 °FSunny.No wind94%30.01 "HgN/A
6:58 AM52 °FClear.No wind94%30.01 "HgN/A
5:58 AM52 °FClear.No wind94%29.99 "HgN/A
4:58 AM52 °FClear.No wind94%29.99 "HgN/A
3:58 AM54 °FClear.No wind94%30.01 "HgN/A
2:58 AM54 °FClear.No wind94%30.01 "HgN/A
1:58 AM55 °FClear.No wind94%30.01 "HgN/A
12:58 AM57 °FClear.No wind88%30.03 "HgN/A
11:58 PM
Sat, Aug 27
59 °FClear.No wind88%30.03 "HgN/A
Weather by CustomWeather, © 2016

See weather overviewHow to use our weather pages